Regional Weather Roundup
Issued by NWS

Home | Current Version | Previous Version | Graphics & Text | Print | Product List | Glossary On
Versions: 1 2 3 4 5 6 7 8 9 10 11 12 13 14 15 16 17 18 19 20 21 22 23 24 25 26 27 28 29 30 31 32 33 34 35 36 37 38 39 40 41 42 43 44 45 46 47 48 49 50
000
ASUS43 KOAX 161202
RWRNE

WEATHER ROUNDUP FOR NEBRASKA
NATIONAL WEATHER SERVICE OMAHA NE
700 AM CDT TUE SEP 16 2014

NOTES: SATELLITE DATA IS BEING USED TO AUGMENT CLOUD COVER ABOVE
       12000 FEET.
       "FAIR" INDICATES FEW OR NO CLOUDS BELOW 12,000 FEET WITH NO
       SIGNIFICANT WEATHER AND/OR OBSTRUCTIONS TO VISIBILITY.

  * THESE STATIONS DO NOT REPORT WEATHER SUCH AS RAIN...SNOW OR FOG.

NEZ001>004-019>022-054>056-161300-
NEBRASKA PANHANDLE

CITY           SKY/WX    TMP DP  RH WIND       PRES   REMARKS
SCOTTSBLUFF    PTCLDY    49  48  97 SE5       30.07F
6HR MIN TEMP:  49; 6HR MAX TEMP:  54; 6HR PCP: TRACE;

ALLIANCE       MOCLDY    51  49  92 N3        30.06F
6HR MIN TEMP:  48; 6HR MAX TEMP:  54;

CHADRON        CLEAR     46  46 100 W5        30.04F
6HR MIN TEMP:  46; 6HR MAX TEMP:  60;

KIMBALL        PTCLDY    46  46  99 CALM      30.11S FOG
SIDNEY         PTCLDY    51  49  92 S9        30.13F FOG
6HR MIN TEMP:  51; 6HR MAX TEMP:  56;

$$

NEZ057>060-069>072-079>082-161300-
SOUTHWEST NEBRASKA

CITY           SKY/WX    TMP DP  RH WIND       PRES   REMARKS
NORTH PLATTE   MOCLDY    52  43  71 VRB3G28   30.15F
6HR MIN TEMP:  43; 6HR MAX TEMP:  52;

IMPERIAL       PTCLDY    49  47  93 N9        30.17R
6HR MIN TEMP:  49; 6HR MAX TEMP:  53; 6HR PCP: TRACE;

LEXINGTON      PTCLDY    48  45  90 SE7       30.20S
MCCOOK         CLOUDY    50  45  83 MISG      30.20S
6HR MIN TEMP:  48; 6HR MAX TEMP:  50;

OGALLALA       PTCLDY    52  50  93 S8        30.12S
$$

NEZ005>010-023>029-035>040-094-161300-
NORTH CENTRAL NEBRASKA

CITY           SKY/WX    TMP DP  RH WIND       PRES   REMARKS
VALENTINE      CLEAR     49  43  80 S8        30.08F
6HR MIN TEMP:  49; 6HR MAX TEMP:  53;

AINSWORTH      CLEAR     47  42  82 S12       30.11F
BROKEN BOW     CLEAR     46  43  89 S10       30.16F
6HR MIN TEMP:  38; 6HR MAX TEMP:  47;

O`NEILL        CLEAR     45  43  93 S8        30.17S
ORD            CLEAR     44  41  89 S6        30.19S
6HR MIN TEMP:  38; 6HR MAX TEMP:  44;

THEDFORD       CLEAR     52  44  75 S15       30.13F
$$

NEZ041-046>049-061>064-073>077-083>087-161300-
SOUTH CENTRAL NEBRASKA

CITY           SKY/WX    TMP DP  RH WIND       PRES   REMARKS
GRAND ISLAND   CLEAR     46  42  86 S7        30.22F
6HR MIN TEMP:  45; 6HR MAX TEMP:  48;

AURORA         CLEAR     45  42  89 S5        30.22F
HASTINGS       CLEAR     45  41  86 S6        30.22S
6HR MIN TEMP:  45; 6HR MAX TEMP:  50;

HEBRON         CLEAR     40  38  93 CALM      30.24S
HOLDREGE       CLEAR     45  43  92 CALM      30.21S
KEARNEY *      CLEAR     45  41  87 S7        30.22S
YORK           CLEAR     45  41  87 S5        30.23F
$$

NEZ011>018-030>034-042>045-161300-
NORTHEAST NEBRASKA

CITY           SKY/WX    TMP DP  RH WIND       PRES   REMARKS
NORFOLK        CLEAR     44  41  89 S8        30.21F
6HR MIN TEMP:  40; 6HR MAX TEMP:  45;

ALBION         CLEAR     42  39  89 CALM      30.21F
BLAIR          CLEAR     46  44  93 CALM      30.24S
COLUMBUS *     CLEAR     37  36  93 CALM      30.24S
FREMONT        CLEAR     42  41  96 CALM      30.23F
TEKAMAH        FOG       40  38  93 SW3       30.24S VSB 3/4
6HR MIN TEMP:  40; 6HR MAX TEMP:  44;

WAYNE          CLEAR     39  37  94 S3        30.22F
$$

NEZ050>053-065>068-078-088>093-161300-
SOUTHEAST NEBRASKA

CITY           SKY/WX    TMP DP  RH WIND       PRES   REMARKS
LINCOLN        CLEAR     41  39  93 CALM      30.25F
6HR MIN TEMP:  39; 6HR MAX TEMP:  45;

OMAHA EPPLEY   PTCLDY    45  43  93 S6        30.26S FOG
6HR MIN TEMP:  42; 6HR MAX TEMP:  48;

BEATRICE       CLEAR     39  38  97 CALM      30.24F
FALLS CITY     CLEAR     41  40  96 CALM      30.25S
6HR MIN TEMP:  41; 6HR MAX TEMP:  48;

NEBRASKA CITY  CLEAR     44  42  93 S3        30.26R
PLATTSMOUTH    CLEAR     42  40  93 SE3       30.25R
$$

NEZ044-045-051>053-067-161300-
OMAHA AREA

CITY           SKY/WX    TMP DP  RH WIND       PRES   REMARKS
OMAHA EPPLEY   PTCLDY    45  43  93 S6        30.26S FOG
6HR MIN TEMP:  42; 6HR MAX TEMP:  48;

BLAIR          CLEAR     46  44  93 CALM      30.24S
FREMONT        CLEAR     42  41  96 CALM      30.23F
MILLARD          N/A     43  42  97 CALM      30.24S FOG
OFFUTT AFB     MIX PCPN  42  42 100 CALM      30.25S VSB<1/4
PLATTSMOUTH    CLEAR     42  40  93 SE3       30.25R
WAHOO          FAIR      39  37  91 CALM      30.24S
$$


USA.gov is the U.S. government's official web portal to all federal, state and local government web resources and services.